Regional Weather Roundup
Issued by NWS

Home | Current Version | Previous Version | Graphics & Text | Print | Product List | Glossary On
Versions: 1 2 3 4 5 6 7 8 9 10 11 12 13 14 15 16 17 18 19 20 21 22 23 24 25 26 27 28 29 30 31 32 33 34 35 36 37 38 39 40 41 42 43 44 45 46 47 48 49 50
000
ASUS43 KFSD 151902
RWRSD

WEATHER ROUNDUP FOR SOUTH DAKOTA
NATIONAL WEATHER SERVICE SIOUX FALLS SD
100 PM CST FRI DEC 15 2017

NOTE: "FAIR" INDICATES FEW OR NO CLOUDS BELOW 12,000 FEET WITH NO
SIGNIFICANT WEATHER AND/OR OBSTRUCTIONS TO VISIBILITY.


SDZ001>005-009-010-012>017-152000-
NORTHWEST AND NORTH CENTRAL SOUTH DAKOTA

CITY           SKY/WX    TMP DP  RH WIND       PRES   REMARKS
BUFFALO          N/A     46  26  45 W16       29.61F
FAITH            N/A     46  23  40 W17       29.68F
MOBRIDGE       CLOUDY    40  26  57 SW8       29.65F
$$

SDZ012>016-024>037-041>051-057-063-072>074-152000-
SOUTHWEST AND SOUTH CENTRAL SOUTH DAKOTA

CITY           SKY/WX    TMP DP  RH WIND       PRES   REMARKS
RAPID CTY ARPT CLOUDY    54  15  21 S10       29.75F
PIERRE         SUNNY     41  25  53 W12       29.72F
CUSTER         CLOUDY    47   9  21 W16G26    29.80F
ELLSWORTH AFB  CLOUDY    55  15  20 S8        29.73F
PHILIP         CLOUDY    47  28  47 W14       29.74F
PINE RIDGE     CLOUDY    47  20  34 W13G24    29.82F
SPEARFISH      FAIR      52  12  20 W20G26    29.76F
WINNER         FAIR      42  29  59 SW14      29.76F
$$

SDZ004>011-016>023-039-040-152000-
NORTHEAST SOUTH DAKOTA

CITY           SKY/WX    TMP DP  RH WIND       PRES   REMARKS
ABERDEEN       CLOUDY    37  27  67 SW10      29.71F
WATERTOWN      CLOUDY    34  29  82 SW15      29.73F WCI  24
BROOKINGS      CLOUDY    36  27  69 W8        29.76F
SISSETON         N/A     31  29  92 SE9       29.73F WCI  23
$$

SDZ017-020-022-023-036>040-048>070-152000-
SOUTHEAST SOUTH DAKOTA

CITY           SKY/WX    TMP DP  RH WIND       PRES   REMARKS
SIOUX FALLS    CLOUDY    39  26  59 W7        29.80F
HURON          CLOUDY    41  26  55 S12       29.75F
CHAMBERLAIN    SUNNY     41  31  67 S9        29.75F
MITCHELL       CLOUDY    39  26  59 SW10      29.80F
YANKTON        CLOUDY    37  25  61 SW12      29.82F
$$

ABBREVIATIONS USED IN REMARKS
   TC - TEMPERATURE IN CELSIUS
  WCI - WIND CHILL INDEX
   HX - HEAT INDEX
  VSB - VISIBILITY




USA.gov is the U.S. government's official web portal to all federal, state and local government web resources and services.